{"data":{"norad_id":67787,"epoch":"2026-05-25T04:00:03.998880Z","epoch_age_seconds":57764,"freshness":"FRESH","line1":"1 67787U 26030Z   26145.16671295  .00022496  00000+0  32288-2 0  9998","line2":"2 67787  51.9000 217.0306 0002263 131.4685  43.4116 14.76381939  4501","mean_motion":14.76381939,"eccentricity":0.0002263,"inclination_deg":51.9,"raan_deg":217.0306,"arg_perigee_deg":131.4685,"mean_anomaly_deg":43.4116,"bstar":0.0032288,"rev_number":450,"period_min":97.53573665195,"perigee_km":639.1795332558,"apogee_km":642.35628961872,"semimajor_km":7018.9049114373,"source":"CELESTRAK","updated_at":"2026-05-25T13:38:07.262169Z"}}